Wind_Speed
19 20 20 21 20 20 19 18 18 18 17 18 19 19 18 18 19 19 19 20 21 21 22 22 22 22 23 23 22 22 22 21 21 21 21 22 22 21
21 22 22 22 22 21 20 20 20 20 19 20 20 20 21 21 20 21 21 22 22 22 22 23 23 24 24 24 23 23 24 24 24 23 23 23 23 23
22 22 22 22 22 22 22 22 22 22 22 22 22 22 22 22 23 22 22 23 23 23 24 24 24 24 25 25 25 25 25 25 26 26 26 26 26 25
23 23 23 23 23 23 23 23 23 23 23 23 24 24 24 24 24 24 24 24 24 25 25 25 25 26 26 26 27 27 27 27 27 28 28 28 27 28
25 24 24 24 24 24 24 25 25 24 25 25 25 25 25 25 25 25 25 25 25 25 25 26 26 26 27 27 27 27 27 27 27 28 28 29 29 29
26 25 25 26 26 26 26 26 26 26 26 26 26 26 26 26 25 26 26 26 26 25 25 25 26 26 26 27 27 28 28 28 28 28 29 30 31 31
26 26 27 27 27 27 27 27 27 28 28 28 27 27 27 27 27 26 26 25 25 25 25 26 27 27 27 27 28 28 29 29 29 29 30 30 31 32
28 29 29 29 29 29 29 29 29 29 28 28 27 27 27 28 28 27 27 26 26 26 26 26 27 27 28 28 29 29 30 30 30 30 31 31 32 33
30 30 30 31 31 31 31 31 31 30 29 28 28 29 29 29 29 28 28 27 27 27 27 27 28 28 28 29 30 30 30 31 31 31 32 32 32 33
31 31 31 32 32 32 32 32 31 30 31 31 30 31 31 31 30 30 29 29 28 28 28 28 28 28 29 29 30 31 31 31 31 31 31 32 32 32
32 32 32 32 33 33 33 32 31 31 31 31 30 31 31 31 30 30 30 30 30 30 30 30 29 29 29 30 31 31 31 31 30 30 31 31 31 31
33 32 32 33 33 33 32 32 31 31 31 31 31 30 31 31 30 30 31 31 30 31 31 31 31 30 30 30 31 31 31 31 31 30 30 31 32 32
34 33 33 34 34 33 33 32 32 32 32 32 32 32 32 31 31 31 31 31 30 30 30 31 31 31 30 30 31 31 31 31 30 30 31 31 31 32
35 35 34 34 34 33 33 33 33 33 33 32 32 32 32 32 31 31 31 31 31 31 32 32 32 31 30 30 30 30 31 31 31 31 31 31 31 31
35 35 35 34 33 32 32 33 33 33 34 33 33 33 32 32 32 32 32 33 32 32 33 34 34 32 31 30 29 30 30 30 30 30 30 30 30 29
36 35 34 33 33 34 34 34 34 34 34 33 33 33 33 33 32 33 33 33 33 32 33 34 33 31 30 30 30 30 29 29 29 29 30 29 29 29
35 34 34 34 34 34 34 34 34 34 33 33 33 33 33 33 33 32 32 32 32 33 34 33 33 32 31 30 30 29 29 28 28 28 27 27 28 29
35 35 34 34 34 34 34 33 33 33 33 33 33 33 33 32 32 31 31 31 31 32 33 32 31 31 30 29 29 29 28 28 28 28 27 27 27 28
34 34 33 33 34 34 34 33 33 33 32 32 33 33 32 32 32 31 32 31 31 32 32 31 30 30 29 28 27 27 27 27 27 27 27 27 27 27
33 33 33 34 33 33 32 32 31 31 31 31 32 32 32 32 32 31 31 32 32 32 31 31 30 29 28 27 26 25 25 25 26 26 26 26 25 26
32 32 32 33 32 32 31 30 30 30 31 31 31 31 31 31 31 31 31 32 32 32 30 29 29 28 28 27 26 25 24 24 24 24 25 25 24 24
32 32 31 31 31 31 30 30 30 30 30 30 30 31 31 31 31 31 31 31 32 30 28 28 27 26 26 26 25 24 24 24 23 23 23 24 23 23
31 31 30 31 31 30 30 30 30 30 30 30 30 30 31 31 31 31 31 30 29 28 27 27 26 25 25 24 24 24 24 24 24 23 22 22 22 22
Wind_Direction
302 302 303 302 303 299 300 298 296 295 295 294 293 294 293 292 290 291 290 288 286 284 282 280 279 277 277 275 274 272 269 267 267 265 264 263 264 263
299 300 301 300 301 298 298 297 295 293 293 293 291 291 291 290 290 289 288 288 286 284 282 280 278 276 277 276 274 273 270 267 266 265 263 263 264 263
297 298 298 298 298 297 296 296 295 293 291 291 288 288 289 289 289 289 287 287 286 284 282 279 278 277 277 276 275 274 271 267 266 266 264 263 263 264
297 297 298 297 297 296 295 295 294 293 291 290 288 287 288 288 288 288 287 286 285 283 281 280 278 277 277 276 274 272 270 269 268 266 265 264 262 262
295 295 296 297 296 296 295 294 294 292 292 291 290 289 288 287 287 287 286 286 285 283 280 279 278 278 276 275 273 271 269 270 269 267 266 265 263 262
293 293 294 295 295 294 293 293 293 292 292 292 292 292 289 287 287 286 285 285 284 283 281 280 279 279 277 275 273 271 269 270 270 268 267 266 263 263
294 295 294 293 293 292 291 291 291 291 291 292 292 291 290 288 287 286 286 285 283 282 282 281 280 279 277 276 273 271 270 270 270 269 268 267 265 264
292 293 294 293 292 291 291 291 291 290 290 290 291 290 289 288 287 286 285 283 282 281 281 281 281 280 278 277 274 273 273 272 271 269 267 268 268 267
291 292 293 294 291 290 290 290 291 291 289 287 288 289 288 287 286 285 284 282 281 281 281 281 281 281 279 278 275 274 274 272 271 271 270 269 269 267
291 291 291 291 290 289 289 289 289 289 290 288 288 289 289 288 286 284 283 282 281 280 281 281 281 280 279 278 277 275 275 273 271 270 270 270 270 268
290 290 290 289 290 290 288 288 288 288 289 289 288 290 290 290 287 284 283 282 281 281 282 281 281 281 278 278 277 277 276 274 272 271 270 269 268 267
291 291 291 290 289 288 287 287 287 288 288 288 289 290 291 290 289 286 285 284 281 281 281 281 281 280 278 277 277 277 276 274 273 272 272 270 268 267
292 291 291 290 289 287 287 287 288 288 288 287 287 289 289 289 289 288 286 284 283 282 281 281 281 280 277 277 277 275 274 274 273 272 272 272 270 267
293 292 290 290 289 287 288 289 289 288 288 286 286 287 287 287 286 288 287 285 284 283 282 283 282 281 279 277 275 274 273 273 274 273 272 271 269 266
292 292 291 291 291 291 291 290 289 288 288 288 287 287 287 287 285 285 285 284 284 285 285 285 283 281 279 278 275 274 273 273 273 273 272 271 269 266
292 293 293 292 291 291 291 290 289 289 290 290 290 289 289 289 288 285 285 284 283 284 286 286 284 282 280 279 277 275 273 273 273 273 272 271 268 267
292 293 292 291 290 289 289 289 289 288 288 289 290 289 288 289 288 286 285 285 284 284 285 285 285 283 281 279 279 277 276 275 273 273 272 271 268 266
294 294 292 291 291 290 289 288 289 288 288 288 288 289 288 288 288 286 285 284 285 285 284 285 284 284 281 278 277 277 275 274 273 272 270 268 266 264
295 294 292 291 291 291 289 287 288 288 287 288 289 289 289 288 287 286 285 285 285 285 285 285 285 285 282 279 278 276 274 273 272 270 267 266 264 263
295 295 294 294 292 291 289 287 287 287 288 288 288 289 289 289 288 287 286 285 284 284 282 282 281 281 279 277 277 276 273 273 273 271 267 265 263 261
294 295 294 295 293 290 288 286 286 288 289 289 289 289 289 288 288 287 286 285 284 283 281 281 280 279 277 277 278 277 274 273 273 270 267 265 261 258
295 295 295 295 294 291 287 286 286 286 287 288 289 290 289 289 288 288 287 287 286 283 282 281 281 279 278 279 279 277 274 274 273 270 265 263 260 256
294 295 295 294 293 292 290 288 287 287 287 288 288 290 290 290 290 289 288 288 286 283 281 279 278 278 279 280 279 277 275 274 272 267 265 263 259 255
Height
5860 5858 5856 5854 5852 5851 5849 5848 5847 5845 5843 5841 5839 5837 5836 5834 5833 5831 5829 5828 5827 5825 5824 5823 5823 5822 5821 5821 5820 5820 5821 5821 5821 5821 5822 5822 5822 5823
5855 5853 5851 5849 5847 5845 5844 5842 5841 5839 5838 5836 5834 5832 5830 5828 5827 5825 5823 5822 5820 5819 5818 5817 5816 5815 5814 5814 5814 5814 5814 5815 5815 5815 5815 5815 5816 5816
5850 5848 5846 5843 5841 5840 5838 5836 5835 5833 5831 5830 5828 5826 5824 5822 5820 5818 5816 5815 5813 5812 5811 5810 5809 5808 5807 5807 5806 5806 5806 5806 5807 5807 5807 5808 5808 5809
5844 5842 5840 5838 5836 5834 5832 5830 5828 5826 5824 5823 5821 5819 5817 5815 5813 5811 5809 5807 5806 5804 5803 5802 5801 5800 5799 5799 5798 5798 5798 5798 5798 5799 5799 5800 5801 5801
5838 5836 5834 5832 5830 5827 5825 5823 5821 5819 5817 5815 5814 5812 5810 5807 5805 5804 5801 5800 5797 5796 5795 5794 5793 5792 5791 5790 5790 5790 5790 5790 5790 5790 5790 5791 5792 5792
5831 5829 5827 5825 5823 5821 5818 5816 5814 5812 5810 5808 5806 5804 5802 5799 5797 5796 5794 5792 5790 5788 5786 5785 5784 5783 5783 5782 5782 5781 5781 5781 5781 5781 5781 5782 5782 5783
5824 5822 5819 5817 5815 5813 5811 5809 5807 5804 5802 5800 5798 5796 5794 5791 5789 5787 5785 5784 5782 5780 5778 5777 5776 5775 5774 5773 5773 5772 5772 5772 5772 5772 5772 5772 5773 5774
5816 5814 5811 5809 5807 5805 5802 5800 5798 5796 5794 5792 5790 5787 5785 5783 5781 5778 5777 5775 5774 5773 5771 5769 5768 5767 5766 5765 5764 5763 5763 5763 5763 5762 5762 5763 5763 5763
5808 5806 5804 5801 5799 5796 5794 5792 5789 5787 5785 5783 5781 5779 5776 5774 5772 5770 5768 5766 5765 5763 5762 5761 5759 5758 5757 5756 5755 5754 5754 5753 5753 5753 5753 5753 5753 5753
5800 5798 5795 5792 5789 5787 5785 5783 5780 5778 5775 5773 5772 5770 5767 5765 5762 5761 5759 5758 5756 5754 5753 5752 5750 5749 5748 5746 5745 5744 5744 5743 5743 5743 5743 5743 5743 5743
5790 5788 5786 5783 5780 5778 5776 5773 5771 5768 5766 5763 5761 5759 5757 5755 5753 5751 5749 5748 5747 5745 5743 5742 5741 5739 5738 5737 5736 5735 5734 5733 5733 5733 5733 5733 5732 5732
5781 5778 5776 5774 5771 5768 5766 5764 5762 5759 5757 5754 5752 5750 5748 5745 5743 5741 5739 5737 5736 5735 5733 5732 5730 5728 5728 5727 5726 5725 5724 5723 5723 5723 5723 5722 5722 5723
5772 5769 5766 5763 5761 5758 5756 5754 5752 5750 5747 5745 5743 5741 5738 5736 5733 5731 5729 5727 5726 5725 5723 5721 5720 5718 5717 5717 5716 5715 5714 5713 5713 5712 5712 5712 5712 5712
5762 5759 5756 5753 5751 5748 5746 5744 5742 5740 5738 5735 5733 5731 5729 5726 5724 5722 5720 5718 5716 5715 5713 5711 5709 5708 5707 5706 5706 5705 5704 5703 5702 5702 5702 5701 5702 5702
5751 5748 5746 5743 5741 5738 5736 5734 5732 5730 5728 5726 5723 5721 5718 5716 5714 5712 5710 5708 5706 5704 5702 5700 5699 5697 5696 5695 5695 5694 5694 5693 5692 5692 5692 5692 5692 5693
5742 5738 5735 5733 5731 5729 5726 5724 5722 5720 5717 5715 5713 5710 5708 5706 5704 5702 5700 5698 5696 5695 5692 5690 5688 5687 5686 5685 5684 5684 5683 5683 5682 5681 5682 5682 5683 5683
5731 5728 5725 5723 5721 5718 5716 5714 5712 5709 5707 5704 5702 5700 5698 5696 5693 5691 5690 5688 5686 5684 5683 5680 5678 5676 5675 5674 5674 5673 5673 5673 5673 5672 5672 5673 5673 5674
5720 5718 5715 5713 5711 5708 5706 5704 5701 5699 5697 5694 5692 5690 5688 5686 5683 5681 5680 5678 5676 5674 5672 5670 5668 5666 5665 5664 5664 5663 5663 5663 5663 5663 5663 5664 5664 5665
5710 5707 5705 5703 5700 5698 5696 5694 5691 5689 5687 5684 5682 5680 5678 5676 5674 5672 5670 5668 5666 5664 5662 5660 5658 5657 5656 5655 5655 5654 5654 5653 5653 5654 5654 5654 5655 5656
5700 5697 5695 5692 5690 5688 5685 5683 5681 5679 5677 5675 5672 5670 5668 5666 5664 5662 5660 5658 5656 5655 5653 5651 5649 5648 5647 5646 5646 5646 5645 5644 5645 5645 5645 5645 5647 5648
5690 5687 5685 5682 5680 5677 5675 5673 5671 5669 5667 5665 5663 5661 5659 5657 5655 5653 5651 5649 5647 5645 5644 5642 5640 5639 5638 5637 5637 5637 5637 5636 5636 5636 5637 5638 5639 5641
5680 5678 5675 5673 5670 5668 5665 5664 5662 5660 5658 5656 5654 5652 5650 5647 5645 5643 5641 5639 5638 5636 5635 5633 5632 5631 5630 5629 5629 5629 5629 5628 5628 5628 5630 5631 5632 5634
5671 5668 5666 5663 5661 5659 5656 5654 5652 5650 5648 5646 5645 5643 5641 5638 5636 5634 5632 5630 5629 5627 5626 5625 5624 5623 5622 5622 5621 5621 5621 5621 5621 5622 5623 5624 5625 5627